| time (UTC) | temp C | wind direction | speed KPH | gust KPH | rain 1hr cm | rain 24hr cm | rain mn cm | humidity % | barometer mb |
| 20260831071531 | 10 | 158 | 6.4 | 12.9 | 0.00 | 0.00 | 0.00 | 77 | 1017.3 |
| 20260831070032 | 10 | 161 | 8.0 | 12.9 | 0.00 | 0.00 | 0.00 | 77 | 1017.3 |
| 20260831063030 | 10 | 138 | 8.0 | 16.1 | 0.00 | 0.00 | 0.00 | 78 | 1017.5 |
| 20260831060151 | 10 | 170 | 8.0 | 12.9 | 0.00 | 0.00 | 0.00 | 77 | 1017.6 |
| 20260831054531 | 10 | 160 | 8.0 | 12.9 | 0.00 | 0.00 | 0.00 | 76 | 1017.8 |
| 20260831053035 | 10 | 155 | 8.0 | 12.9 | 0.00 | 0.00 | 0.00 | 76 | 1017.9 |
| 20260831051607 | 11 | 162 | 6.4 | 11.3 | 0.00 | 0.00 | 0.00 | 75 | 1018.0 |
| 20260831050030 | 11 | 164 | 8.0 | 12.9 | 0.00 | 0.00 | 0.00 | 75 | 1018.1 |
| 20260831044534 | 11 | 151 | 8.0 | 11.3 | 0.00 | 0.00 | 0.00 | 76 | 1018.2 |
| 20260831043030 | 11 | 147 | 6.4 | 12.9 | 0.00 | 0.00 | 0.00 | 76 | 1018.2 |
| 20260831041533 | 10 | 157 | 8.0 | 11.3 | 0.00 | 0.00 | 0.00 | 77 | 1018.3 |
| 20260831040034 | 10 | 154 | 6.4 | 9.7 | 0.00 | 0.00 | 0.00 | 77 | 1018.1 |
| 20260831034533 | 10 | 150 | 6.4 | 9.7 | 0.00 | 0.00 | 0.00 | 76 | 1018.1 |
| 20260831033034 | 11 | 136 | 4.8 | 6.4 | 0.00 | 0.00 | 0.00 | 75 | 1018.0 |
| 20260831031536 | 11 | 135 | 1.6 | 4.8 | 0.00 | 0.00 | 0.00 | 73 | 1017.9 |
| 20260831030034 | 12 | 94 | 1.6 | 4.8 | 0.00 | 0.00 | 0.00 | 71 | 1017.9 |
| 20260831024535 | 13 | 80 | 1.6 | 4.8 | 0.00 | 0.00 | 0.00 | 68 | 1017.9 |
| 20260831023031 | 14 | 20 | 0.0 | 4.8 | 0.00 | 0.00 | 0.00 | 64 | 1017.8 |
| 20260831021536 | 16 | 360 | 0.0 | 3.2 | 0.00 | 0.00 | 0.00 | 59 | 1017.9 |
| 20260831014532 | 17 | 351 | 4.8 | 11.3 | 0.00 | 0.00 | 0.00 | 53 | 1017.8 |
| 20260831013044 | 18 | 344 | 6.4 | 12.9 | 0.00 | 0.00 | 0.00 | 51 | 1018.0 |
| 20260831011604 | 18 | 330 | 8.0 | 17.7 | 0.00 | 0.00 | 0.00 | 49 | 1018.0 |
| 20260831010035 | 19 | 326 | 8.0 | 17.7 | 0.00 | 0.00 | 0.00 | 49 | 1018.0 |
| 20260831004536 | 19 | 324 | 8.0 | 14.5 | 0.00 | 0.00 | 0.00 | 47 | 1018.0 |
| 20260831003029 | 20 | 336 | 9.7 | 22.5 | 0.00 | 0.00 | 0.00 | 46 | 1017.9 |
| 20260831000034 | 20 | 343 | 11.3 | 19.3 | 0.00 | 0.00 | 0.00 | 46 | 1018.0 |
| 20260830233030 | 21 | 356 | 12.9 | 17.7 | 0.00 | 0.00 | 0.00 | 44 | 1018.1 |
| 20260830231535 | 21 | 360 | 11.3 | 22.5 | 0.00 | 0.00 | 0.00 | 44 | 1018.1 |
| 20260830224534 | 21 | 1 | 12.9 | 20.9 | 0.00 | 0.00 | 0.00 | 46 | 1018.3 |
| 20260830223043 | 21 | 8 | 11.3 | 19.3 | 0.00 | 0.00 | 0.00 | 46 | 1018.6 |
| 20260830221531 | 21 | 8 | 12.9 | 19.3 | 0.00 | 0.00 | 0.00 | 45 | 1018.8 |
| 20260830214533 | 21 | 4 | 11.3 | 20.9 | 0.00 | 0.00 | 0.00 | 45 | 1019.2 |
| 20260830213032 | 21 | 1 | 9.7 | 14.5 | 0.00 | 0.00 | 0.00 | 45 | 1019.3 |
| 20260830211535 | 21 | 335 | 6.4 | 14.5 | 0.00 | 0.00 | 0.00 | 45 | 1019.4 |
| 20260830210034 | 21 | 353 | 6.4 | 12.9 | 0.00 | 0.00 | 0.00 | 45 | 1019.4 |
| 20260830204535 | 21 | 353 | 6.4 | 17.7 | 0.00 | 0.00 | 0.00 | 46 | 1019.6 |
| 20260830201536 | 21 | 337 | 4.8 | 16.1 | 0.00 | 0.00 | 0.00 | 44 | 1019.9 |
| 20260830200036 | 21 | 317 | 6.4 | 11.3 | 0.00 | 0.00 | 0.00 | 44 | 1020.0 |
| 20260830194535 | 20 | 324 | 4.8 | 14.5 | 0.00 | 0.00 | 0.00 | 44 | 1020.1 |
| 20260830193031 | 20 | 349 | 4.8 | 14.5 | 0.00 | 0.00 | 0.00 | 45 | 1020.3 |
| 20260830191533 | 20 | 340 | 1.6 | 8.0 | 0.00 | 0.00 | 0.00 | 46 | 1020.4 |
| 20260830190033 | 19 | 6 | 4.8 | 11.3 | 0.00 | 0.00 | 0.00 | 47 | 1020.5 |
| 20260830184530 | 18 | 333 | 1.6 | 9.7 | 0.00 | 0.00 | 0.00 | 47 | 1020.7 |
| 20260830183031 | 18 | 318 | 3.2 | 9.7 | 0.00 | 0.00 | 0.00 | 49 | 1020.8 |
| 20260830181534 | 18 | 324 | 4.8 | 11.3 | 0.00 | 0.00 | 0.00 | 50 | 1020.8 |
| 20260830180144 | 18 | 345 | 3.2 | 9.7 | 0.00 | 0.00 | 0.00 | 51 | 1020.8 |
| 20260830174534 | 17 | 332 | 3.2 | 9.7 | 0.00 | 0.00 | 0.00 | 53 | 1020.8 |
| 20260830173035 | 15 | 316 | 3.2 | 9.7 | 0.00 | 0.00 | 0.00 | 60 | 1020.8 |
| 20260830170034 | 14 | 341 | 4.8 | 8.0 | 0.00 | 0.00 | 0.00 | 59 | 1021.0 |
| 20260830164533 | 15 | 41 | 3.2 | 6.4 | 0.00 | 0.00 | 0.00 | 59 | 1021.1 |
| 20260830163033 | 15 | 20 | 3.2 | 6.4 | 0.00 | 0.00 | 0.00 | 60 | 1021.3 |
| 20260830161529 | 15 | 54 | 3.2 | 6.4 | 0.00 | 0.00 | 0.00 | 60 | 1021.5 |
| 20260830154530 | 16 | 143 | 1.6 | 6.4 | 0.00 | 0.00 | 0.00 | 67 | 1021.7 |
| 20260830153032 | 15 | 157 | 1.6 | 4.8 | 0.00 | 0.00 | 0.00 | 71 | 1021.7 |
| 20260830151535 | 13 | 156 | 1.6 | 4.8 | 0.00 | 0.00 | 0.00 | 76 | 1021.7 |
| 20260830150033 | 12 | 139 | 4.8 | 9.7 | 0.00 | 0.00 | 0.00 | 79 | 1021.7 |
| 20260830144529 | 9 | 149 | 6.4 | 9.7 | 0.00 | 0.00 | 0.00 | 83 | 1021.6 |
| 20260830141535 | 6 | 144 | 8.0 | 14.5 | 0.00 | 0.00 | 0.00 | 82 | 1021.2 |
| 20260830140106 | 6 | 151 | 8.0 | 17.7 | 0.00 | 0.00 | 0.00 | 82 | 1021.1 |
| 20260830134606 | 6 | 155 | 6.4 | 14.5 | 0.00 | 0.00 | 0.00 | 82 | 1021.1 |
| 20260830133149 | 6 | 148 | 9.7 | 17.7 | 0.00 | 0.00 | 0.00 | 82 | 1021.0 |
| 20260830131530 | 7 | 142 | 9.7 | 17.7 | 0.00 | 0.00 | 0.00 | 82 | 1020.9 |
| 20260830130033 | 6 | 150 | 9.7 | 22.5 | 0.00 | 0.00 | 0.00 | 83 | 1020.9 |
| 20260830124536 | 6 | 150 | 9.7 | 19.3 | 0.00 | 0.00 | 0.00 | 83 | 1020.9 |
| 20260830123031 | 6 | 153 | 9.7 | 12.9 | 0.00 | 0.00 | 0.00 | 84 | 1020.9 |
| 20260830120031 | 6 | 155 | 6.4 | 12.9 | 0.00 | 0.00 | 0.00 | 84 | 1020.9 |
| 20260830113031 | 6 | 148 | 8.0 | 16.1 | 0.00 | 0.00 | 0.00 | 84 | 1020.9 |
| 20260830111534 | 5 | 145 | 4.8 | 11.3 | 0.00 | 0.00 | 0.00 | 84 | 1021.0 |
| 20260830110107 | 5 | 136 | 3.2 | 8.0 | 0.00 | 0.00 | 0.00 | 84 | 1021.0 |
| 20260830104531 | 6 | 136 | 6.4 | 12.9 | 0.00 | 0.00 | 0.00 | 84 | 1021.0 |
| 20260830103030 | 6 | 146 | 8.0 | 14.5 | 0.00 | 0.00 | 0.00 | 84 | 1021.0 |
| 20260830101537 | 6 | 137 | 8.0 | 11.3 | 0.00 | 0.00 | 0.00 | 84 | 1020.9 |
| 20260830090038 | 6 | 138 | 9.7 | 14.5 | 0.00 | 0.00 | 0.00 | 82 | 1021.1 |
| 20260830084536 | 6 | 149 | 4.8 | 9.7 | 0.00 | 0.00 | 0.00 | 81 | 1021.0 |
| 20260830083036 | 6 | 184 | 4.8 | 9.7 | 0.00 | 0.00 | 0.00 | 80 | 1021.1 |
| 20260830081531 | 6 | 155 | 3.2 | 9.7 | 0.00 | 0.00 | 0.00 | 77 | 1021.2 |